Location: Unspecified
(0.0000°N, 0.0000°E)
Time: 08:09:12
(UTC+00:00)

CHUBUSAT 2 - Visible Passes

Search period start: 25 June 2018 00:00
Search period end: 05 July 2018 00:00
Orbit: 557 x 576 km, 31.0° (Epoch: 24 June)

Date Brightness Start Highest point End Pass type
(mag) Time Alt. Az. Time Alt. Az. Time Alt. Az.
29 Jun ? 19:39:03 10° SSW 19:39:17 11° SSW 19:39:17 11° SSW visible
30 Jun ? 19:37:24 10° SSW 19:39:25 23° SSW 19:39:25 23° SSW visible
01 Jul ? 19:36:02 10° SW 19:39:46 53° S 19:39:46 53° S visible
02 Jul ? 19:34:55 10° WSW 19:39:16 82° NNW 19:40:18 51° NE visible
03 Jul ? 19:34:03 10° WSW 19:38:12 47° NNW 19:40:58 19° NE visible
04 Jul ? 19:33:27 10° W 19:37:10 28° NNW 19:40:55 10° NNE visible
